TimeAKDT,TemperatureF,Dew PointF,Humidity,Sea Level PressureIn,VisibilityMPH,Wind Direction,Wind SpeedMPH,Gust SpeedMPH,PrecipitationIn,Events,Conditions,WindDirDegrees,DateUTC
12:34 AM,26.6,21.2,80,30.23,8.0,South,11.5,-,N/A,,Overcast,170,2013-05-09 08:34:00
12:53 AM,27.0,23.0,85,30.23,9.0,South,11.5,-,N/A,,Overcast,170,2013-05-09 08:53:00
1:20 AM,26.6,24.8,93,30.22,10.0,South,9.2,-,N/A,,Overcast,180,2013-05-09 09:20:00
1:53 AM,28.0,25.0,88,30.22,10.0,SSW,10.4,-,N/A,,Overcast,200,2013-05-09 09:53:00
2:53 AM,28.9,25.0,85,30.22,10.0,South,11.5,-,N/A,,Overcast,190,2013-05-09 10:53:00
3:53 AM,28.0,25.0,88,30.22,10.0,South,10.4,-,N/A,,Overcast,190,2013-05-09 11:53:00
4:53 AM,28.9,25.0,85,30.20,10.0,South,12.7,-,N/A,,Overcast,180,2013-05-09 12:53:00
5:53 AM,28.9,25.0,85,30.19,10.0,South,12.7,-,N/A,,Overcast,190,2013-05-09 13:53:00
6:53 AM,30.0,25.0,82,30.18,10.0,South,15.0,-,N/A,,Overcast,190,2013-05-09 14:53:00
7:53 AM,30.9,25.0,79,30.16,10.0,South,16.1,-,N/A,,Overcast,190,2013-05-09 15:53:00
8:53 AM,30.2,24.8,80,30.15,10.0,SSW,17.3,-,N/A,,Overcast,210,2013-05-09 16:53:00
9:53 AM,30.9,26.1,82,30.14,10.0,SSW,18.4,-,N/A,,Overcast,210,2013-05-09 17:53:00
10:53 AM,33.1,27.0,78,30.13,10.0,SW,20.7,-,N/A,,Overcast,220,2013-05-09 18:53:00
11:48 AM,33.8,26.6,75,30.13,10.0,SW,21.9,-,N/A,,Overcast,220,2013-05-09 19:48:00
11:53 AM,33.1,27.0,78,30.13,10.0,SW,21.9,-,N/A,,Overcast,220,2013-05-09 19:53:00
12:03 PM,33.8,26.6,75,30.13,10.0,SW,21.9,27.6,N/A,,Overcast,220,2013-05-09 20:03:00
12:53 PM,34.0,27.0,75,30.13,10.0,SW,21.9,31.1,N/A,,Overcast,220,2013-05-09 20:53:00
1:00 PM,33.8,28.4,81,30.12,10.0,SW,19.6,27.6,N/A,,Overcast,220,2013-05-09 21:00:00
1:53 PM,33.1,28.0,82,30.13,9.0,SW,23.0,32.2,N/A,,Overcast,230,2013-05-09 21:53:00
2:53 PM,33.1,28.0,82,30.13,9.0,SW,24.2,32.2,0.00,Snow,Light Snow,230,2013-05-09 22:53:00
3:24 PM,33.8,26.6,75,30.12,8.0,SW,25.3,-,0.00,Snow,Light Snow,230,2013-05-09 23:24:00
3:53 PM,32.0,27.0,82,30.12,6.0,SW,26.5,-,0.00,Snow,Light Snow,230,2013-05-09 23:53:00
4:53 PM,32.0,27.0,82,30.12,5.0,SW,23.0,-,0.00,Snow,Light Snow,230,2013-05-10 00:53:00
5:53 PM,32.0,27.0,82,30.11,5.0,SW,18.4,27.6,0.00,Snow,Light Snow,220,2013-05-10 01:53:00
6:19 PM,32.0,26.6,80,30.11,6.0,SW,20.7,-,0.00,Snow,Light Snow,230,2013-05-10 02:19:00
6:53 PM,32.0,27.0,82,30.11,5.0,SW,19.6,-,0.00,Snow,Light Snow,230,2013-05-10 02:53:00
7:23 PM,32.0,26.6,80,30.10,6.0,SW,20.7,-,0.00,Snow,Light Snow,230,2013-05-10 03:23:00
7:53 PM,32.0,27.0,82,30.10,9.0,SW,19.6,-,0.00,Snow,Light Snow,230,2013-05-10 03:53:00
8:53 PM,30.9,27.0,85,30.10,9.0,SW,17.3,-,0.00,Snow,Light Snow,230,2013-05-10 04:53:00
9:53 PM,30.9,27.0,85,30.09,9.0,SW,16.1,-,0.00,Snow,Light Snow,230,2013-05-10 05:53:00
10:53 PM,30.9,27.0,85,30.09,9.0,SW,15.0,-,0.00,Snow,Light Snow,230,2013-05-10 06:53:00
11:16 PM,30.2,26.6,86,30.09,9.0,WSW,15.0,-,0.00,Snow,Light Snow,240,2013-05-10 07:16:00
11:53 PM,30.9,27.0,85,30.09,10.0,WSW,17.3,-,0.00,,Overcast,250,2013-05-10 07:53:00